KF7SOJ Weather Reports


time (UTC)temp
C
wind
direction
speed
KPH
gust
KPH
rain 1hr
cm
rain 24hr
cm
rain mn
cm
humidity
%
barometer
mb
20260502194338 21 27 20.9 20.9 0.00 0.00 0.00 29 933.0
20260502193834 21 55 8.0 19.3 0.00 0.00 0.00 28 933.1
20260502193331 21 58 22.5 22.5 0.00 0.00 0.00 28 933.1
20260502192827 21 32 9.7 19.3 0.00 0.00 0.00 27 933.1
20260502192324 21 342 6.4 17.7 0.00 0.00 0.00 27 933.2
20260502191821 21 1 11.3 20.9 0.00 0.00 0.00 28 933.3
20260502191319 21 22 12.9 20.9 0.00 0.00 0.00 29 933.3
20260502190816 21 24 11.3 17.7 0.00 0.00 0.00 28 933.2
20260502190313 20 26 17.7 19.3 0.00 0.00 0.00 28 933.3
20260502185809 20 52 16.1 24.1 0.00 0.00 0.00 30 933.4
20260502185305 21 62 19.3 22.5 0.00 0.00 0.00 28 933.4
20260502184802 21 4 16.1 22.5 0.00 0.00 0.00 27 933.3
20260502184257 21 28 14.5 20.9 0.00 0.00 0.00 26 933.6
20260502183754 21 355 9.7 17.7 0.00 0.00 0.00 26 933.6
20260502183250 21 62 9.7 20.9 0.00 0.00 0.00 26 933.3
20260502182745 21 3 9.7 20.9 0.00 0.00 0.00 28 933.4
20260502182241 21 26 9.7 20.9 0.00 0.00 0.00 27 933.6
20260502181738 21 28 22.5 24.1 0.00 0.00 0.00 27 933.4
20260502181237 21 29 20.9 24.1 0.00 0.00 0.00 27 933.5
20260502180734 21 11 19.3 19.3 0.00 0.00 0.00 28 933.6
20260502180232 21 4 17.7 19.3 0.00 0.00 0.00 27 933.6
20260502170156 21 58 14.5 25.7 0.00 0.00 0.00 25 933.6
20260502164142 20 254 9.7 22.5 0.00 0.00 0.00 24 933.5
20260502163638 20 279 9.7 14.5 0.00 0.00 0.00 25 933.6
20260502163135 20 248 11.3 22.5 0.00 0.00 0.00 25 933.6
20260502162632 20 271 12.9 22.5 0.00 0.00 0.00 25 933.7
20260502162129 20 255 11.3 22.5 0.00 0.00 0.00 23 933.7
20260502161626 20 231 22.5 29.0 0.00 0.00 0.00 24 933.6
20260502161123 19 253 20.9 30.6 0.00 0.00 0.00 25 933.6
20260502160621 20 251 25.7 32.2 0.00 0.00 0.00 24 933.3
20260502160120 19 243 17.7 30.6 0.00 0.00 0.00 27 933.3
20260502152034 17 237 19.3 33.8 0.00 0.00 0.00 27 933.5
20260502151531 17 227 32.2 32.2 0.00 0.00 0.00 25 933.4
20260502151028 17 225 27.4 33.8 0.00 0.00 0.00 26 933.5
20260502150525 17 226 32.2 35.4 0.00 0.00 0.00 26 933.4
20260502130410 12 281 8.0 24.1 0.00 0.00 0.00 31 933.0
20260502123353 11 232 9.7 14.5 0.00 0.00 0.00 34 933.0
20260502122850 11 234 17.7 20.9 0.00 0.00 0.00 34 932.6
20260502122346 11 247 17.7 27.4 0.00 0.00 0.00 33 932.8
20260502121844 10 247 17.7 32.2 0.00 0.00 0.00 34 932.5
20260502121341 10 233 24.1 30.6 0.00 0.00 0.00 34 932.7
20260502120839 10 243 22.5 27.4 0.00 0.00 0.00 34 932.7
20260502120334 11 246 14.5 25.7 0.00 0.00 0.00 33 932.8
20260502115832 11 248 14.5 29.0 0.00 0.00 0.00 32 932.6
20260502115329 11 245 22.5 29.0 0.00 0.00 0.00 32 932.6
20260502114826 11 253 20.9 30.6 0.00 0.00 0.00 32 932.6
20260502114322 11 257 17.7 27.4 0.00 0.00 0.00 33 932.7
20260502113819 11 250 19.3 25.7 0.00 0.00 0.00 33 932.6
20260502113317 11 245 19.3 29.0 0.00 0.00 0.00 33 932.7
20260502112815 11 247 19.3 25.7 0.00 0.00 0.00 33 932.6
20260502112312 9 257 9.7 20.9 0.00 0.00 0.00 38 932.9
20260502111809 8 276 9.7 14.5 0.00 0.00 0.00 39 932.8
20260502111307 8 291 4.8 6.4 0.00 0.00 0.00 42 933.0
20260502110804 8 353 9.7 12.9 0.00 0.00 0.00 42 933.1
20260502110302 10 349 6.4 9.7 0.00 0.00 0.00 36 932.9
20260502105800 10 252 14.5 19.3 0.00 0.00 0.00 35 932.5
20260502105256 10 244 14.5 20.9 0.00 0.00 0.00 35 932.4
20260502104754 10 252 17.7 22.5 0.00 0.00 0.00 35 932.4
20260502104251 10 242 16.1 24.1 0.00 0.00 0.00 35 932.4
20260502103748 11 246 20.9 27.4 0.00 0.00 0.00 34 932.3
20260502103246 11 246 17.7 25.7 0.00 0.00 0.00 34 932.3
20260502102743 11 251 20.9 24.1 0.00 0.00 0.00 34 932.1
20260502102239 11 249 19.3 24.1 0.00 0.00 0.00 34 932.2
20260502101737 11 255 16.1 24.1 0.00 0.00 0.00 33 932.1
20260502101235 11 249 20.9 32.2 0.00 0.00 0.00 33 932.1
20260502100733 12 245 20.9 30.6 0.00 0.00 0.00 32 932.1
20260502100231 11 253 19.3 25.7 0.00 0.00 0.00 33 932.1
20260502091205 11 245 9.7 22.5 0.00 0.00 0.00 35 932.1
20260502090703 11 253 11.3 22.5 0.00 0.00 0.00 35 932.3
20260502090200 11 255 14.5 20.9 0.00 0.00 0.00 35 932.2
20260502071101 12 236 9.7 11.3 0.00 0.00 0.00 33 932.7
20260502070559 12 241 9.7 12.9 0.00 0.00 0.00 32 932.8
20260502070057 11 246 8.0 11.3 0.00 0.00 0.00 34 932.8
20260502065555 10 212 0.0 3.2 0.00 0.00 0.00 38 932.8
20260502065052 10 144 0.0 3.2 0.00 0.00 0.00 37 932.9
20260502064551 10 209 1.6 3.2 0.00 0.00 0.00 37 932.8
20260502064047 10 165 3.2 3.2 0.00 0.00 0.00 37 932.9
20260502063545 10 130 3.2 4.8 0.00 0.00 0.00 37 932.8
20260502063043 11 137 4.8 4.8 0.00 0.00 0.00 36 932.8
20260502062540 12 196 3.2 6.4 0.00 0.00 0.00 33 932.8
20260502062038 12 259 8.0 8.0 0.00 0.00 0.00 33 932.9
20260502061536 12 245 4.8 9.7 0.00 0.00 0.00 34 932.9
20260502061032 12 226 6.4 8.0 0.00 0.00 0.00 35 932.6
20260502060527 12 238 11.3 12.9 0.00 0.00 0.00 34 932.9
20260502060025 12 233 12.9 14.5 0.00 0.00 0.00 35 932.8
20260502055522 12 236 11.3 16.1 0.00 0.00 0.00 36 932.7
20260502055021 11 230 11.3 12.9 0.00 0.00 0.00 37 932.6
20260502054519 12 225 8.0 9.7 0.00 0.00 0.00 37 932.7
20260502054016 12 238 6.4 8.0 0.00 0.00 0.00 37 932.7
20260502053513 12 227 3.2 9.7 0.00 0.00 0.00 37 932.7
20260502053011 11 237 6.4 8.0 0.00 0.00 0.00 38 932.8
20260502052509 11 233 4.8 9.7 0.00 0.00 0.00 39 932.9
20260502052007 11 228 8.0 9.7 0.00 0.00 0.00 41 932.7
20260502051504 11 201 4.8 6.4 0.00 0.00 0.00 42 932.8
20260502051001 11 192 3.2 6.4 0.00 0.00 0.00 41 932.8
20260502050457 11 221 6.4 8.0 0.00 0.00 0.00 41 932.8
20260502045955 12 196 4.8 8.0 0.00 0.00 0.00 39 932.8
20260502045452 12 183 4.8 4.8 0.00 0.00 0.00 39 932.7
20260502044949 12 185 3.2 4.8 0.00 0.00 0.00 40 932.7
20260502044444 12 197 4.8 6.4 0.00 0.00 0.00 39 932.9
20260502043941 12 191 4.8 4.8 0.00 0.00 0.00 40 932.8
20260502043439 12 218 8.0 11.3 0.00 0.00 0.00 41 932.7
20260502042938 12 206 6.4 9.7 0.00 0.00 0.00 40 932.8
20260502042436 12 199 6.4 9.7 0.00 0.00 0.00 40 932.6
20260502041933 12 212 9.7 11.3 0.00 0.00 0.00 39 932.6
20260502041431 13 204 6.4 11.3 0.00 0.00 0.00 38 932.7
20260502040927 13 202 8.0 9.7 0.00 0.00 0.00 37 932.8
20260502040424 13 208 6.4 16.1 0.00 0.00 0.00 39 932.8
20260502035920 13 221 11.3 14.5 0.00 0.00 0.00 37 932.8
20260502035417 14 209 9.7 12.9 0.00 0.00 0.00 35 932.6
20260502034915 14 210 9.7 12.9 0.00 0.00 0.00 35 932.7
20260502034413 14 201 8.0 9.7 0.00 0.00 0.00 35 932.7
20260502033911 14 205 6.4 11.3 0.00 0.00 0.00 35 932.8
20260502033408 13 205 9.7 9.7 0.00 0.00 0.00 36 932.7
20260502032905 13 200 3.2 6.4 0.00 0.00 0.00 35 932.6
20260502032401 14 253 3.2 4.8 0.00 0.00 0.00 33 932.6
20260502031859 15 226 3.2 3.2 0.00 0.00 0.00 30 932.6
20260502031357 15 223 1.6 3.2 0.00 0.00 0.00 29 932.6
20260502030855 15 131 6.4 8.0 0.00 0.00 0.00 29 932.4
20260502030353 15 108 9.7 9.7 0.00 0.00 0.00 29 932.4
20260502025850 16 236 6.4 6.4 0.00 0.00 0.00 27 932.3
20260502025347 16 237 6.4 9.7 0.00 0.00 0.00 27 932.5
20260502024845 16 235 6.4 9.7 0.00 0.00 0.00 26 932.3
20260502024343 17 246 6.4 9.7 0.00 0.00 0.00 25 932.2
20260502023840 17 244 8.0 9.7 0.00 0.00 0.00 25 932.2
20260502023338 17 239 9.7 11.3 0.00 0.00 0.00 27 932.2
20260502022836 17 242 9.7 12.9 0.00 0.00 0.00 28 932.4
20260502022331 17 246 8.0 12.9 0.00 0.00 0.00 28 932.4
20260502021829 17 244 9.7 12.9 0.00 0.00 0.00 27 932.5
20260502021326 18 243 6.4 9.7 0.00 0.00 0.00 27 932.5
20260502020823 18 245 9.7 11.3 0.00 0.00 0.00 27 932.5
20260502020321 18 242 6.4 9.7 0.00 0.00 0.00 27 932.4
20260502015818 18 243 8.0 8.0 0.00 0.00 0.00 26 932.5
20260502015314 18 245 6.4 9.7 0.00 0.00 0.00 27 932.5
20260502014812 18 243 8.0 9.7 0.00 0.00 0.00 26 932.4
20260502014309 19 251 6.4 8.0 0.00 0.00 0.00 26 932.3
20260502013805 20 246 3.2 8.0 0.00 0.00 0.00 27 932.4
20260502013300 20 244 6.4 8.0 0.00 0.00 0.00 26 932.4
20260502012757 20 238 6.4 8.0 0.00 0.00 0.00 25 932.5
20260502012255 20 229 6.4 6.4 0.00 0.00 0.00 25 932.5
20260502011752 21 239 4.8 8.0 0.00 0.00 0.00 24 932.4
20260502011248 21 238 11.3 11.3 0.00 0.00 0.00 22 932.4
20260502010746 21 249 8.0 12.9 0.00 0.00 0.00 21 932.5
20260502010242 22 244 6.4 6.4 0.00 0.00 0.00 20 932.5
20260502005739 22 245 8.0 11.3 0.00 0.00 0.00 18 932.5
20260502005237 22 219 4.8 8.0 0.00 0.00 0.00 18 932.6
20260502004733 22 232 3.2 4.8 0.00 0.00 0.00 17 932.6
20260502004230 23 235 8.0 8.0 0.00 0.00 0.00 17 932.5
20260502003728 23 232 8.0 8.0 0.00 0.00 0.00 16 932.5
20260502003225 23 344 6.4 8.0 0.00 0.00 0.00 15 932.6
20260502002720 23 330 3.2 6.4 0.00 0.00 0.00 18 932.5
20260502002218 23 19 6.4 6.4 0.00 0.00 0.00 16 932.5
20260502001715 22 346 4.8 9.7 0.00 0.00 0.00 16 932.6
20260502001213 23 18 6.4 9.7 0.00 0.00 0.00 18 932.6
20260502000710 23 244 3.2 8.0 0.00 0.00 0.00 17 932.6
20260502000211 24 350 0.0 3.2 0.00 0.00 0.00 18 932.7
20260501235704 23 222 3.2 3.2 0.00 0.00 0.00 18 932.9
20260501235200 22 225 9.7 12.9 0.00 0.00 0.00 16 932.6
20260501234655 22 236 8.0 12.9 0.00 0.00 0.00 18 932.8
20260501234153 22 256 9.7 14.5 0.00 0.00 0.00 17 932.7
20260501233651 22 239 19.3 20.9 0.00 0.00 0.00 17 932.8
20260501233148 22 249 17.7 19.3 0.00 0.00 0.00 16 932.9
20260501232644 23 253 9.7 14.5 0.00 0.00 0.00 17 932.9
20260501232142 23 243 14.5 16.1 0.00 0.00 0.00 17 932.8
20260501231639 23 37 0.0 6.4 0.00 0.00 0.00 18 932.9
20260501231137 22 345 8.0 12.9 0.00 0.00 0.00 18 932.9
20260501230635 22 358 6.4 12.9 0.00 0.00 0.00 18 933.0
20260501230133 23 346 9.7 11.3 0.00 0.00 0.00 17 932.8
20260501225630 23 250 9.7 14.5 0.00 0.00 0.00 17 932.9
20260501225126 23 6 4.8 12.9 0.00 0.00 0.00 16 932.9
20260501224624 23 231 4.8 8.0 0.00 0.00 0.00 15 932.8
20260501224121 23 184 3.2 8.0 0.00 0.00 0.00 16 933.0
20260501223617 23 299 4.8 8.0 0.00 0.00 0.00 17 932.9
20260501223114 22 347 1.6 4.8 0.00 0.00 0.00 15 933.1
20260501222610 23 266 11.3 12.9 0.00 0.00 0.00 16 933.0
20260501222107 22 269 4.8 14.5 0.00 0.00 0.00 17 933.1
20260501221604 23 276 16.1 16.1 0.00 0.00 0.00 16 933.2
20260501221101 23 282 8.0 14.5 0.00 0.00 0.00 18 933.4
20260501220559 22 247 9.7 11.3 0.00 0.00 0.00 18 933.3
20260501220055 22 2 6.4 11.3 0.00 0.00 0.00 18 933.4
20260501215552 22 312 6.4 14.5 0.00 0.00 0.00 18 933.3
20260501215047 23 273 12.9 16.1 0.00 0.00 0.00 17 933.5
20260501214542 22 275 3.2 11.3 0.00 0.00 0.00 16 933.4
20260501214038 22 314 8.0 12.9 0.00 0.00 0.00 19 933.6
20260501213536 23 110 3.2 8.0 0.00 0.00 0.00 16 933.5
20260501213032 22 27 0.0 8.0 0.00 0.00 0.00 22 933.6
20260501212528 22 356 6.4 12.9 0.00 0.00 0.00 18 933.7
20260501212025 22 255 11.3 16.1 0.00 0.00 0.00 19 933.6
20260501211522 21 226 14.5 16.1 0.00 0.00 0.00 18 933.7
20260501211020 22 82 0.0 9.7 0.00 0.00 0.00 18 933.7
20260501210516 22 353 3.2 17.7 0.00 0.00 0.00 17 934.0
20260501210013 22 250 8.0 12.9 0.00 0.00 0.00 17 933.8
20260501205510 22 262 4.8 12.9 0.00 0.00 0.00 19 933.9
20260501205008 21 217 9.7 11.3 0.00 0.00 0.00 19 934.0
20260501204503 22 333 4.8 12.9 0.00 0.00 0.00 20 934.0
20260501203959 21 281 4.8 14.5 0.00 0.00 0.00 19 933.8
20260501203456 21 14 9.7 9.7 0.00 0.00 0.00 20 933.9
20260501202954 21 39 9.7 14.5 0.00 0.00 0.00 18 933.9
20260501202450 22 26 8.0 11.3 0.00 0.00 0.00 18 934.0
20260501201946 22 2 6.4 9.7 0.00 0.00 0.00 17 934.0
20260501201444 22 296 4.8 16.1 0.00 0.00 0.00 22 933.9
20260501200941 22 329 6.4 19.3 0.00 0.00 0.00 20 934.0
20260501200438 21 16 3.2 9.7 0.00 0.00 0.00 18 934.3
20260501195935 21 88 4.8 8.0 0.00 0.00 0.00 22 934.2
20260501195432 21 250 6.4 12.9 0.00 0.00 0.00 18 934.1
20260501194927 21 301 4.8 12.9 0.00 0.00 0.00 19 934.1